sat.trackr.live / text

‹ back to catalog

STARLINK-34145

NORAD 64110 · 2025-110Q

PAYLOAD ACTIVE UNKNOWN

§ Identity

Operator
Country
US
Launch date
2025-05-23
Launch site
AFWTR
Launch vehicle
Mass (kg)
RCS (m²)

Purposes: comms

External: N2YO · Heavens-Above · Gunter

§ Orbital elements

Epoch: 2026-05-25T02:41:47.863392Z

Period
93.85 min
Inclination
53.1583°
Eccentricity
0.0000993
Mean motion
15.34399355 rev/d
Perigee alt
462.0 km
Apogee alt
463.4 km
Semi-major
6,840.8 km
B*
7.6846e-4
RAAN
31.0417°
Arg perigee
77.9215°
Mean anomaly
282.1899°
Rev number
5,759

§ Raw data

STARLINK-341451 64110U 25110Q   26145.11235953  .00025676  00000+0  76846-3 0  99972 64110  53.1583  31.0417 0000993  77.9215 282.1899 15.34399355 57599

JSON: /api/v1/satellites/64110 · /tle

For live sub-satellite position, see the globe view (requires WebGL).

§ Visibility from observer

Set your observer location to see the next 7 days of passes ≥ 10°. The values pass through the URL so the page stays shareable.

No JS? Fill the form by hand. The geolocation button needs JavaScript.